Tracking 29510 objects as of 16-Sep-2024
HD Live streaming from Space Station
objects crossing your sky now

STARLINK-5387

Track STARLINK-5387 now!
10-day predictions
STARLINK-5387 is classified as:


NORAD ID: 54842
Int'l Code: 2022-177Y
Perigee: 565.2 km
Apogee: 567.2 km
Inclination: 43.0 °
Period: 95.8 minutes
Semi major axis: 6937 km
RCS: Unknown
Launch date: December 28, 2022
Source: United States (US)
Launch site: AIR FORCE EASTERN TEST RANGE (AFETR)
Your satellite tracking list
Your tracking list is empty




NASA's NSSDC Master Catalog

Two Line Element Set (TLE):
1 54842U 22177Y   24259.50823749  .00002092  00000-0  16989-3 0  9991
2 54842  43.0019 188.0411 0001436 266.0386  94.0292 15.02533236 95707
Source of the keplerian elements: AFSPC